Presure
375 358 337 295 267 261 270 268 257 252 238 222 226 221 208 215 208 205 201 198 197 205 195 205 239 238 259 260 244 232 323 333 335 310 304 319 319 401 332 341 344 353 345 334
344 346 303 280 271 268 285 270 247 241 220 228 222 204 215 206 203 199 199 195 204 206 209 235 225 242 257 243 249 323 331 332 322 296 299 308 332 411 341 340 345 355 334 330
343 312 281 265 261 264 254 256 234 218 224 225 203 212 206 199 201 199 202 201 209 219 230 253 244 242 237 233 266 325 344 332 302 303 314 308 385 332 337 365 349 335 321 314
315 290 274 265 268 271 247 240 224 222 213 208 209 207 197 198 200 197 200 193 219 225 226 245 236 237 225 221 262 271 342 329 305 300 307 317 406 340 331 328 334 311 303 294
292 281 268 258 251 250 242 229 226 207 213 200 206 204 192 194 197 199 206 197 220 223 243 232 231 236 216 215 266 261 335 348 308 302 305 324 411 343 320 322 303 290 291 282
288 273 265 268 254 242 230 222 211 213 210 201 202 194 197 106 196 199 183 220 224 232 229 228 248 249 218 217 264 265 267 356 315 297 304 324 411 345 315 320 292 286 280 265
278 271 269 251 250 236 217 216 217 207 209 202 198 185 194 196 197 196 219 252 236 228 233 238 220 225 256 263 251 271 262 321 356 304 314 311 391 343 314 318 289 278 272 265
274 268 264 243 238 224 226 199 212 210 206 196 192 191 190 199 198 188 222 239 233 219 233 211 220 240 234 231 229 268 266 266 345 312 308 306 342 337 308 306 286 276 267 264
275 263 253 231 223 216 217 218 211 207 201 200 184 194 199 191 202 228 224 237 223 226 217 203 245 231 236 206 227 229 263 268 267 341 305 314 310 361 303 289 283 266 265 263
260 274 237 235 211 222 201 207 201 207 196 190 191 195 192 199 230 229 238 233 214 205 213 204 205 200 204 237 234 233 234 228 239 269 328 330 318 336 290 286 279 268 267 262
263 242 228 229 213 218 211 208 205 194 194 185 197 196 146 205 230 238 232 222 216 201 205 221 194 201 227 216 216 225 226 236 229 235 258 279 362 318 336 240 224 213 266 245
255 237 229 214 218 213 209 200 202 195 189 188 190 183 193 234 223 232 214 217 203 199 202 193 222 195 224 201 215 220 216 220 232 222 230 256 273 309 355 316 242 230 258 216
241 233 225 209 219 207 208 206 197 190 189 195 192 184 192 224 240 214 232 217 205 214 196 209 211 193 207 194 214 223 193 219 221 223 236 222 238 262 278 321 369 331 242 281
232 231 223 217 217 208 199 202 197 191 193 193 185 192 188 225 243 220 224 213 206 200 220 200 192 216 205 192 208 213 205 200 220 200 225 219 236 227 240 270 273 297 359 381
237 223 222 220 211 206 203 199 190 189 197 186 189 190 194 227 231 227 203 211 196 211 189 200 202 186 203 207 193 206 185 208 195 204 195 209 223 229 236 224 238 257 278 289
233 224 211 220 208 202 203 193 187 190 191 188 191 189 183 201 241 217 209 204 195 191 194 205 200 181 185 184 219 214 211 206 209 192 210 188 209 196 225 234 231 250 236 246
221 221 208 217 209 199 202 196 189 190 190 185 190 191 191 198 237 216 209 202 200 185 193 203 188 194 211 212 209 190 210 184 211 209 181 202 209 223 211 203 222 239 219 252
224 217 213 212 209 200 194 198 188 190 191 187 189 184 180 191 226 211 212 193 193 192 195 194 191 199 182 191 186 189 203 189 210 216 207 203 206 212 213 221 222 204 216 228
223 219 215 214 207 203 193 192 190 188 186 187 189 185 188 190 219 202 210 201 198 202 199 195 195 195 192 197 187 202 199 195 179 193 200 201 218 210 202 201 202 207 231 207
224 221 220 207 206 210 193 200 189 190 188 189 189 183 186 188 189 202 204 196 196 196 195 192 188 193 199 189 179 179 182 186 199 201 198 180 194 181 206 215 222 217 222 202
221 222 218 213 206 210 186 201 184 191 180 177 186 181 183 195 177 189 190 201 194 197 188 188 193 198 193 207 203 204 202 209 202 174 200 201 192 204 203 190 195 175 224 218
220 222 215 213 204 206 193 201 181 190 180 186 190 184 182 178 187 172 189 186 190 194 198 193 187 184 178 188 192 187 187 192 197 200 201 172 200 200 199 191 180 190 185 171
224 223 212 211 200 200 203 194 198 186 192 175 191 181 181 183 169 188 188 188 179 188 188 189 186 185 183 192 189 195 202 203 201 194 203 199 206 221 203 189 204 203 204 215
228 224 215 214 204 199 198 194 201 189 196 187 183 190 173 181 185 184 181 174 181 185 189 186 187 186 185 183 186 188 182 180 201 178 179 206 199 214 205 195 197 206 204 207
229 221 220 215 211 201 207 189 203 196 193 188 188 188 190 174 181 181 186 181 187 178 175 174 177 182 187 190 184 189 188 184 186 191 195 201 186 197 203 193 189 189 196 192
246 226 225 219 214 202 196 184 209 198 187 201 188 184 191 191 177 174 181 183 184 189 188 188 183 194 192 190 190 187 186 188 187 188 187 193 198 197 187 178 195 180 201 198
250 236 225 215 215 207 199 204 184 209 200 188 198 183 187 185 191 188 182 181 181 181 185 181 192 185 188 189 185 190 186 183 182 183 192 189 188 193 197 198 186 205 194 194
Wind_Speed
16 8 24 31 17 17 20 20 18 20 24 19 23 18 11 11 4 3 8 14 20 27 25 36 40 44 47 50 52 51 43 43 37 36 39 44 47 44 39 35 30 29 33 43
12 22 33 33 28 23 26 24 25 29 20 25 22 12 14 8 1 6 12 16 24 28 34 36 39 43 45 53 57 47 45 41 36 38 39 44 49 36 37 35 30 30 40 50
24 34 36 28 23 24 25 30 34 23 26 23 14 19 12 3 4 10 15 20 25 28 31 31 37 41 47 51 55 59 50 41 38 39 45 47 48 41 39 33 34 43 52 60
39 41 38 29 29 31 30 31 33 30 22 23 20 15 6 4 8 12 15 17 26 25 29 31 36 42 44 46 49 56 56 44 41 41 46 51 45 43 39 38 44 54 60 69
42 43 35 31 29 36 34 38 35 22 27 17 18 12 6 8 10 13 19 21 22 25 25 30 38 39 44 48 54 57 64 49 44 46 49 53 45 44 40 41 50 53 59 65
47 45 33 41 42 37 41 35 29 29 25 18 16 10 5 15 10 14 10 18 19 21 26 30 30 32 49 51 58 60 66 58 50 49 51 55 47 45 41 43 50 53 60 58
44 42 40 38 39 43 33 35 35 26 26 21 14 10 7 10 11 13 16 12 15 19 23 23 37 40 58 59 58 66 68 75 54 54 57 55 53 47 41 42 49 52 56 54
39 40 47 41 45 41 43 24 32 30 26 17 13 8 7 9 11 8 10 13 13 20 18 30 36 38 42 48 51 71 72 74 71 60 59 54 57 48 43 43 44 46 46 48
43 38 48 45 46 39 43 36 33 30 26 19 12 8 7 7 9 7 9 16 11 18 27 29 37 34 43 44 47 56 79 79 79 71 65 61 53 58 42 41 39 37 37 39
42 40 53 53 40 47 32 35 31 32 21 16 10 9 9 7 5 8 16 13 17 19 26 30 37 36 42 55 54 57 66 63 72 81 78 63 62 56 44 38 38 34 32 31
44 58 54 55 45 45 41 38 35 25 21 16 11 10 4 6 8 18 15 10 18 20 27 28 33 36 39 39 48 54 60 69 66 70 78 83 64 61 56 37 34 30 29 29
59 62 59 47 48 48 42 36 35 26 21 15 12 11 8 8 9 15 11 15 19 19 25 27 27 34 35 40 42 48 51 58 68 63 66 78 80 78 59 53 30 27 28 26
65 62 60 44 52 44 43 42 33 23 21 17 13 10 8 9 17 14 19 17 21 13 24 18 22 33 32 36 40 48 47 53 58 61 69 61 69 78 77 76 57 49 26 27
61 64 58 51 54 47 40 41 34 27 22 19 16 13 9 12 20 17 20 19 21 18 18 23 26 30 25 34 34 40 41 46 54 51 58 56 66 60 66 73 70 73 63 53
67 58 59 55 52 48 43 41 32 26 25 19 16 14 10 15 19 23 17 21 19 16 19 17 16 28 24 22 35 32 39 38 43 45 45 53 55 60 60 52 56 62 68 66
65 63 53 59 53 48 47 40 31 28 25 20 17 13 13 9 24 23 21 21 18 17 15 17 16 23 28 31 31 31 32 33 35 42 41 42 43 46 53 57 51 58 48 51
64 64 54 61 55 48 49 43 32 29 27 21 19 15 11 9 24 24 22 22 18 14 13 16 16 15 18 25 23 29 28 34 31 33 36 36 37 46 37 40 45 50 41 53
70 66 60 61 57 51 45 45 33 32 28 22 20 17 14 11 22 20 24 17 15 13 11 9 9 9 18 16 20 22 24 27 30 31 29 30 31 33 33 38 34 34 36 37
69 66 62 63 59 58 49 45 40 34 28 24 22 17 15 12 20 17 21 19 15 15 13 11 8 6 10 11 16 18 18 19 26 25 26 29 31 27 27 28 28 28 34 24
69 68 66 58 59 60 48 51 41 41 33 28 24 19 17 14 12 18 19 17 15 14 12 9 8 8 9 8 15 17 19 19 17 19 19 25 23 25 24 28 27 26 26 21
68 68 65 65 62 61 44 53 38 41 32 29 27 24 19 18 14 10 10 18 15 14 10 6 4 7 6 7 8 9 7 14 10 21 15 15 17 18 18 20 19 19 24 16
68 69 66 67 61 62 52 57 42 45 38 34 33 27 23 21 17 16 8 6 6 10 11 8 4 2 2 2 3 5 7 8 7 8 13 18 19 14 15 18 18 18 19 12
73 73 67 68 61 59 61 52 55 42 47 37 37 32 27 25 24 15 13 12 10 7 6 5 5 4 2 2 3 8 11 12 11 10 12 14 10 17 14 11 18 19 20 22
76 75 73 72 70 62 59 53 58 48 51 43 36 37 30 26 23 19 17 18 13 10 9 7 5 5 5 6 6 6 9 10 11 11 11 16 9 16 13 15 19 24 26 28
81 74 76 75 74 65 68 53 62 56 50 46 42 39 39 30 28 26 21 21 18 18 18 16 13 10 10 10 10 9 11 14 16 16 17 15 15 13 18 15 18 22 26 27
81 80 79 76 76 68 62 53 66 59 50 56 46 40 44 42 35 31 28 25 23 23 20 17 16 15 13 14 13 13 14 15 18 20 22 22 24 26 20 19 19 20 25 27
79 82 78 73 75 74 67 71 54 66 63 53 57 44 45 42 45 40 35 30 26 24 22 19 21 15 16 16 16 18 18 19 21 23 26 27 28 30 32 33 27 38 29 28
Wind_Direction
228 202 166 162 197 189 186 174 154 137 135 148 125 119 136 141 150 342 351 349 341 333 329 341 332 340 338 342 353 358 1 360 1 4 359 4 8 7 19 29 41 60 83 89
170 169 160 164 177 181 151 148 134 132 149 131 122 143 139 143 133 2 0 353 342 342 340 335 343 342 342 355 349 14 11 12 15 11 7 14 16 27 37 45 59 79 93 93
162 156 168 180 184 156 145 141 139 145 136 131 147 143 143 134 30 16 2 354 348 340 339 341 344 351 358 4 21 22 20 22 25 21 24 23 23 38 47 61 78 90 101 101
157 162 168 176 158 153 150 137 146 142 145 135 144 147 144 68 26 13 5 359 345 344 347 350 355 358 8 14 12 21 27 32 34 30 33 31 34 51 60 77 92 107 113 115
164 168 175 169 157 148 140 144 145 157 139 149 148 148 94 47 29 15 2 355 348 353 357 2 1 7 19 20 29 24 30 38 43 39 39 38 42 61 70 85 104 111 117 123
168 172 173 157 152 144 145 148 154 141 141 151 145 120 130 326 29 15 351 349 358 1 7 7 28 16 18 20 38 33 35 42 48 46 46 45 47 69 75 94 110 119 124 128
175 175 161 158 152 149 156 153 147 148 148 150 147 130 80 43 29 13 351 36 21 17 38 21 17 18 50 51 36 45 41 41 50 52 54 51 55 74 85 102 116 123 129 132
171 166 159 155 150 152 152 172 146 149 152 156 139 114 82 44 29 6 10 63 43 27 48 31 13 47 23 22 23 50 48 46 45 54 58 60 61 75 91 107 118 123 129 134
172 156 157 154 153 158 157 152 150 155 155 150 131 113 70 59 15 40 42 96 43 52 32 39 63 33 49 45 30 34 51 52 50 51 58 62 65 71 91 97 104 108 123 134
157 162 158 155 164 157 169 154 159 158 157 148 139 107 91 44 50 83 110 110 52 49 39 41 36 46 28 59 51 45 48 45 51 52 55 60 64 69 79 91 98 105 115 126
163 161 162 158 164 161 159 157 158 166 159 149 140 115 41 48 106 117 119 95 67 57 50 61 47 36 52 34 46 48 48 52 47 51 54 57 61 66 70 87 93 99 106 112
160 159 163 170 161 160 158 164 164 168 164 158 141 135 102 129 113 125 93 88 79 67 53 51 59 44 58 38 43 51 45 49 54 48 52 54 57 61 67 71 88 102 98 112
164 164 164 173 163 165 163 163 169 173 167 161 145 152 113 119 131 110 138 98 86 76 64 52 54 39 32 44 50 61 43 54 54 52 58 52 54 54 59 64 69 74 98 87
171 167 165 168 165 166 168 167 171 175 171 166 151 132 127 129 142 121 133 107 92 79 97 61 49 77 36 37 46 54 38 40 61 51 59 51 59 53 56 61 62 64 71 74
166 173 166 167 168 168 169 169 176 179 170 165 154 140 122 137 135 133 117 115 99 111 74 65 61 53 38 44 35 43 47 48 45 47 53 54 59 59 62 54 57 60 64 65
169 170 176 170 170 172 169 175 180 182 179 170 160 148 146 134 146 136 124 115 106 97 82 93 62 57 45 41 79 72 64 47 54 44 57 48 52 45 61 63 60 67 60 59
177 173 179 173 172 176 173 178 183 186 182 179 164 154 139 139 147 139 133 123 121 98 85 102 59 46 76 79 72 35 67 37 61 60 51 43 53 68 52 43 59 67 55 70
177 179 179 177 175 177 180 181 184 187 187 186 174 169 175 146 151 142 139 126 123 121 124 107 73 71 46 37 30 32 60 32 60 67 56 49 52 58 56 64 68 41 55 67
181 182 181 178 178 178 182 186 185 188 194 195 187 181 180 158 152 136 141 136 131 144 132 125 109 88 52 69 27 61 52 47 33 41 53 51 59 56 43 41 42 46 71 44
185 186 182 185 184 179 187 185 190 188 190 193 192 187 187 176 166 141 146 135 129 126 125 110 75 76 107 51 28 18 24 16 49 41 42 25 32 31 54 58 59 64 65 41
189 187 184 183 187 183 192 187 194 192 195 193 201 195 196 189 203 165 155 137 138 143 127 121 149 125 103 102 80 68 46 72 53 21 41 34 15 40 33 23 34 51 45 55
191 187 188 187 193 189 193 190 197 193 198 201 201 207 194 197 198 208 181 184 147 136 143 153 166 139 11 24 29 339 334 3 21 34 32 6 34 20 11 1 14 26 6 44
191 189 191 191 197 197 194 198 195 201 197 204 201 206 210 207 212 203 197 189 217 188 188 180 197 207 245 1 332 20 19 14 12 0 16 18 20 36 13 14 3 1 3 2
194 192 194 193 196 200 201 203 197 204 201 206 209 204 205 214 219 210 211 211 213 219 211 221 243 259 277 291 320 342 332 335 6 337 346 4 7 7 18 347 355 4 0 2
197 197 196 196 196 201 200 205 201 203 205 208 209 212 213 206 221 223 227 223 226 227 232 236 247 269 285 290 294 314 322 324 329 339 342 345 328 340 348 337 334 337 340 335
195 199 198 199 197 203 205 208 203 206 210 204 212 213 214 217 219 220 229 234 233 238 242 245 251 268 272 281 290 295 304 310 316 319 321 330 333 329 323 315 325 313 341 339
198 200 201 201 202 202 207 207 211 206 207 212 210 217 218 221 222 225 231 232 235 238 246 249 261 259 271 277 286 292 295 298 301 306 315 313 314 322 326 326 315 326 325 325